Погода в Блистовой

Украина / Черниговская область     51°25′01″N   31°55′08″E
В апреле 2022 года жителям России запретили посещать сайт meteo.paraplan.net по решению Генеральной прокуратуры. Аудитория сайта уменьшилась в 10 раз. Владельцы сайта не видят смысла в поддержке погодного сервера в таких условиях. Сайт будет закрыт в октябре.
темп.,
°C
ветер,
м/с
пор.,
м/с
влажн.,
%
обл.,
%
осадки,
мм/ч
давл.,
гПа
погр.,
м
3 октября, пн
пн300:00+7з111589100 0.0 9951035
03:00+6з91493100 0.7 9951140
06:00+6з91394100 2.5 9951201
09:00+6зюз91593100 5.6 9951309
12:00+7зюз91490100 2.4 9961286
15:00+7зюз61293100 4.4 9971053
18:00+9юз91590100 2.9 9981382
21:00+8зюз71394100 7.5 999999
4 октября, вт
вт400:00+6юз71191100 2.6 1001987
03:00+7юз81290100 3.2 1002907
06:00+7зюз91390100 1.4 10031005
09:00+7юз41092100 2.3 10051009
12:00+8юз81291100 0.8 10071159
15:00+8зюз71190100 1.8 10091153
18:00+8зюз71292100 0.7 1011743
21:00+8зюз71292100 1.2 1012740
5 октября, ср
ср500:00+8зюз5988100 0.6 1014384
03:00+8зюз6129494 0.9 1015491
06:00+8з61188100 0.1 1016689
09:00+8з71186100 0.2 1019761
12:00+11зсз687227 0.1 10201055
15:00+12з6870100 0.1 10211182
18:00+10з5982100 0.1 1022408
21:00+10зюз4984100 0.1 1022351
6 октября, чт
чт600:00+9юз3988100 0.0 1022220
03:00+8зюз3794100 0.0 1023136
06:00+9зюз389198 0.0 1022178
09:00+10зюз4984100 0.0 1022237
12:00+11юз388335 0.0 1022274
15:00+17зюз68615 0.0 1021917
18:00+14зюз478065 0.0 1021127
21:00+11з4109114 0.0 1022199
7 октября, пт
пт700:00+11з410947 0.0 1024195
03:00+11сз411940 0.0 1025334
06:00+8сз410940 0.0 1026230
09:00+10сз48870 0.0 1027291
12:00+14зсз46633 0.0 1027708
15:00+16зсз56553 0.0 1027941
18:00+12сз33730 0.0 102728
21:00+9зсз22820 0.0 102711